When you browse on this site, cookies collect data to enhance your experience and personalize the content and advertising you see.
Visit our Privacy Policy to learn more. By continuing to use the site, you agree to this use of cookies and data.
  • In Germany
  • List of Countries
  • For 7 days
  • Water Temperature
  • Weather Map
  • Weather Widgets
  • user-avatar
    Login

    Hourly Weather Mendoza

    Today, 16 September, Monday

    Time Temperature Precipitation Wind Pressure Humidity
    00:00 +8°C° 0.2 mm 7 mps 701 mmHg 71%
    01:00 +6°C° 0.2 mm 7 mps 701 mmHg 78%
    02:00 +5°C° 0.2 mm 6 mps 702 mmHg 80%
    03:00 +6°C° 0.2 mm 5 mps 702 mmHg 82%
    04:00 +5°C° 0.2 mm 5 mps 702 mmHg 84%
    05:00 +5°C° 0.3 mm 4 mps 702 mmHg 82%
    06:00 +5°C° 0.3 mm 4 mps 703 mmHg 81%
    07:00 +5°C° 0.3 mm 3 mps 703 mmHg 79%
    08:00 +7°C° 0 mm 2 mps 703 mmHg 74%
    09:00 +8°C° 0 mm 2 mps 703 mmHg 68%
    10:00 +10°C° 0 mm 1 mps 703 mmHg 63%
    11:00 +11°C° 0 mm 1 mps 703 mmHg 57%
    12:00 +12°C° 0 mm 2 mps 702 mmHg 52%
    13:00 +14°C° 0 mm 2 mps 702 mmHg 47%
    14:00 +14°C° 0 mm 2 mps 702 mmHg 45%
    15:00 +14°C° 0 mm 3 mps 702 mmHg 43%
    16:00 +14°C° 0 mm 3 mps 701 mmHg 41%
    17:00 +14°C° 0 mm 3 mps 701 mmHg 43%
    18:00 +13°C° 0 mm 3 mps 701 mmHg 45%
    19:00 +12°C° 0 mm 3 mps 702 mmHg 47%
    20:00 +13°C° 0 mm 2 mps 701 mmHg 47%
    21:00 +12°C° 0 mm 2 mps 701 mmHg 47%
    22:00 +12°C° 0 mm 1 mps 701 mmHg 48%
    23:00 +11°C° 0 mm 1 mps 700 mmHg 49%

    Tomorrow, 17 September, Tuesday

    Time Temperature Precipitation Wind Pressure Humidity
    00:00 +10°C° 0 mm 1 mps 700 mmHg 51%
    01:00 +9°C° 0 mm 0 mps 699 mmHg 53%
    02:00 +8°C° 0 mm 0 mps 698 mmHg 53%
    03:00 +8°C° 0 mm 0 mps 698 mmHg 54%
    04:00 +8°C° 0 mm 0 mps 697 mmHg 55%
    05:00 +10°C° 0 mm 1 mps 698 mmHg 50%
    06:00 +12°C° 0 mm 1 mps 698 mmHg 45%
    07:00 +13°C° 0 mm 1 mps 698 mmHg 41%
    08:00 +15°C° 0 mm 1 mps 698 mmHg 36%
    09:00 +17°C° 0 mm 2 mps 697 mmHg 32%
    10:00 +19°C° 0 mm 2 mps 697 mmHg 27%
    11:00 +20°C° 0 mm 2 mps 697 mmHg 24%
    12:00 +21°C° 0 mm 2 mps 696 mmHg 21%
    13:00 +24°C° 0 mm 2 mps 696 mmHg 18%
    14:00 +24°C° 0 mm 2 mps 696 mmHg 17%
    15:00 +24°C° 0 mm 2 mps 695 mmHg 16%
    16:00 +24°C° 0 mm 2 mps 695 mmHg 15%
    17:00 +22°C° 0 mm 1 mps 695 mmHg 17%
    18:00 +21°C° 0 mm 1 mps 696 mmHg 20%
    19:00 +19°C° 0 mm 1 mps 696 mmHg 22%
    20:00 +18°C° 0 mm 1 mps 696 mmHg 23%
    21:00 +18°C° 0 mm 1 mps 696 mmHg 24%
    22:00 +16°C° 0 mm 2 mps 696 mmHg 25%
    23:00 +15°C° 0 mm 1 mps 696 mmHg 26%

    Day after tomorrow, 18 September, Wednesday

    Time Temperature Precipitation Wind Pressure Humidity
    00:00 +15°C° 0 mm 1 mps 696 mmHg 28%
    01:00 +14°C° 0 mm 1 mps 696 mmHg 29%
    02:00 +13°C° 0 mm 1 mps 696 mmHg 30%
    03:00 +13°C° 0 mm 2 mps 695 mmHg 30%
    04:00 +13°C° 0 mm 2 mps 695 mmHg 30%
    05:00 +14°C° 0 mm 1 mps 695 mmHg 28%
    06:00 +15°C° 0 mm 1 mps 695 mmHg 26%
    07:00 +16°C° 0 mm 1 mps 695 mmHg 24%
    08:00 +19°C° 0 mm 1 mps 695 mmHg 22%
    09:00 +19°C° 0 mm 2 mps 695 mmHg 21%
    10:00 +21°C° 0 mm 2 mps 695 mmHg 19%
    11:00 +23°C° 0 mm 2 mps 694 mmHg 18%
    12:00 +24°C° 0 mm 2 mps 693 mmHg 17%
    13:00 +26°C° 0 mm 3 mps 692 mmHg 16%
    14:00 +26°C° 0 mm 2 mps 692 mmHg 15%
    15:00 +26°C° 0 mm 2 mps 691 mmHg 15%
    16:00 +26°C° 0 mm 2 mps 691 mmHg 14%
    17:00 +25°C° 0 mm 1 mps 691 mmHg 17%
    18:00 +23°C° 0 mm 1 mps 691 mmHg 19%
    19:00 +21°C° 0 mm 1 mps 691 mmHg 22%
    20:00 +20°C° 0 mm 1 mps 691 mmHg 22%
    21:00 +20°C° 0 mm 1 mps 691 mmHg 23%
    22:00 +18°C° 0 mm 2 mps 691 mmHg 23%
    23:00 +18°C° 0 mm 3 mps 691 mmHg 23%

    19 September, Thursday

    Time Temperature Precipitation Wind Pressure Humidity
    00:00 +18°C° 0 mm 4 mps 691 mmHg 23%
    01:00 +17°C° 0 mm 4 mps 692 mmHg 23%
    02:00 +14°C° 0 mm 5 mps 692 mmHg 30%
    03:00 +13°C° 0 mm 5 mps 693 mmHg 36%
    04:00 +10°C° 0 mm 5 mps 694 mmHg 42%
    05:00 +9°C° 0 mm 5 mps 695 mmHg 40%
    06:00 +9°C° 0 mm 5 mps 696 mmHg 39%
    07:00 +8°C° 0 mm 5 mps 696 mmHg 37%
    08:00 +10°C° 0 mm 4 mps 696 mmHg 33%
    09:00 +10°C° 0 mm 4 mps 697 mmHg 30%
    10:00 +11°C° 0 mm 4 mps 697 mmHg 26%
    11:00 +12°C° 0 mm 4 mps 697 mmHg 24%
    12:00 +13°C° 0 mm 4 mps 696 mmHg 22%
    13:00 +14°C° 0 mm 4 mps 696 mmHg 19%
    14:00 +14°C° 0 mm 4 mps 696 mmHg 18%
    15:00 +14°C° 0 mm 4 mps 696 mmHg 18%
    16:00 +14°C° 0 mm 4 mps 696 mmHg 17%
    17:00 +13°C° 0 mm 4 mps 697 mmHg 18%
    18:00 +12°C° 0 mm 3 mps 698 mmHg 20%
    19:00 +11°C° 0 mm 3 mps 698 mmHg 21%
    20:00 +10°C° 0 mm 2 mps 698 mmHg 22%
    21:00 +10°C° 0 mm 2 mps 699 mmHg 24%
    22:00 +10°C° 0 mm 1 mps 699 mmHg 26%
    23:00 +10°C° 0 mm 1 mps 699 mmHg 26%

    20 September, Friday

    Time Temperature Precipitation Wind Pressure Humidity
    00:00 +10°C° 0 mm 1 mps 699 mmHg 27%
    01:00 +9°C° 0 mm 1 mps 699 mmHg 28%
    02:00 +9°C° 0 mm 1 mps 699 mmHg 29%
    03:00 +8°C° 0 mm 1 mps 699 mmHg 30%
    04:00 +7°C° 0 mm 0 mps 699 mmHg 31%
    05:00 +9°C° 0 mm 1 mps 700 mmHg 28%
    06:00 +11°C° 0 mm 1 mps 700 mmHg 25%
    07:00 +12°C° 0 mm 1 mps 701 mmHg 21%
    08:00 +13°C° 0 mm 3 mps 701 mmHg 19%
    09:00 +15°C° 0 mm 4 mps 701 mmHg 17%
    10:00 +16°C° 0 mm 5 mps 701 mmHg 15%
    11:00 +17°C° 0 mm 5 mps 701 mmHg 14%
    12:00 +20°C° 0 mm 6 mps 700 mmHg 14%
    13:00 +21°C° 0 mm 6 mps 700 mmHg 13%
    14:00 +21°C° 0 mm 6 mps 699 mmHg 13%
    15:00 +21°C° 0 mm 6 mps 699 mmHg 13%
    16:00 +21°C° 0 mm 5 mps 699 mmHg 13%
    17:00 +19°C° 0 mm 4 mps 699 mmHg 15%
    18:00 +18°C° 0 mm 4 mps 699 mmHg 16%
    19:00 +16°C° 0 mm 3 mps 699 mmHg 18%
    20:00 +14°C° 0 mm 3 mps 699 mmHg 19%
    21:00 +15°C° 0 mm 2 mps 699 mmHg 20%
    22:00 +14°C° 0 mm 2 mps 699 mmHg 21%
    23:00 +13°C° 0 mm 2 mps 698 mmHg 23%

    21 September, Saturday

    Time Temperature Precipitation Wind Pressure Humidity
    00:00 +12°C° 0 mm 1 mps 698 mmHg 24%
    01:00 +11°C° 0 mm 1 mps 698 mmHg 26%
    02:00 +11°C° 0 mm 1 mps 697 mmHg 25%
    03:00 +10°C° 0 mm 1 mps 697 mmHg 25%
    04:00 +10°C° 0 mm 1 mps 697 mmHg 25%
    05:00 +11°C° 0 mm 1 mps 697 mmHg 23%
    06:00 +12°C° 0 mm 1 mps 698 mmHg 21%
    07:00 +14°C° 0 mm 1 mps 698 mmHg 19%
    08:00 +15°C° 0 mm 2 mps 698 mmHg 19%
    09:00 +16°C° 0 mm 2 mps 698 mmHg 18%
    10:00 +18°C° 0 mm 2 mps 698 mmHg 17%
    11:00 +19°C° 0 mm 2 mps 698 mmHg 16%
    12:00 +20°C° 0 mm 2 mps 697 mmHg 15%
    13:00 +21°C° 0 mm 2 mps 697 mmHg 14%
    14:00 +21°C° 0 mm 2 mps 697 mmHg 14%
    15:00 +23°C° 0 mm 2 mps 697 mmHg 13%
    16:00 +23°C° 0 mm 2 mps 697 mmHg 13%
    17:00 +21°C° 0 mm 2 mps 698 mmHg 15%
    18:00 +19°C° 0 mm 3 mps 698 mmHg 17%
    19:00 +18°C° 0 mm 3 mps 699 mmHg 20%
    20:00 +17°C° 0 mm 4 mps 699 mmHg 21%
    21:00 +15°C° 0 mm 4 mps 700 mmHg 23%
    22:00 +14°C° 0 mm 5 mps 700 mmHg 24%
    23:00 +13°C° 0 mm 5 mps 700 mmHg 27%
    Show more